Radiation Dose at Monitoring Post of Fukushima Daini Nuclear Power Station
Date,Time,MP-1(microSv/h),MP-2(microSv/h),MP-3(microSv/h),MP-4(microSv/h),MP-5(microSv/h),MP-6(microSv/h),MP-7(microSv/h),Wind Direction,Wind Velocity(m/s),Rain
2016/02/29,00:00,0.463,0.266,0.485,0.433,0.400,0.219,0.192,south-southeast,1.4,Yes
2016/02/29,00:10,0.466,0.267,0.484,0.435,0.399,0.218,0.192,south-southwest,4.1,Yes
2016/02/29,00:20,0.464,0.268,0.485,0.434,0.399,0.220,0.193,south-southwest,5.1,Yes
2016/02/29,00:30,0.463,0.267,0.483,0.434,0.400,0.219,0.194,south,6.1,Yes
2016/02/29,00:40,0.466,0.267,0.484,0.435,0.400,0.219,0.193,south,7.0,Yes
2016/02/29,00:50,0.462,0.267,0.484,0.436,0.398,0.219,0.191,south-southwest,7.0,No
2016/02/29,01:00,0.462,0.267,0.484,0.436,0.400,0.220,0.193,south,6.2,Yes
2016/02/29,01:10,0.466,0.267,0.483,0.434,0.400,0.219,0.193,south-southwest,6.6,No
2016/02/29,01:20,0.463,0.268,0.484,0.435,0.398,0.218,0.192,south-southwest,7.2,No
2016/02/29,01:30,0.464,0.267,0.483,0.435,0.399,0.220,0.193,south-southwest,7.1,Yes
2016/02/29,01:40,0.467,0.267,0.484,0.433,0.399,0.218,0.192,south-southwest,8.1,Yes
2016/02/29,01:50,0.462,0.266,0.484,0.434,0.398,0.218,0.192,south-southwest,7.1,Yes
2016/02/29,02:00,0.465,0.268,0.485,0.436,0.401,0.218,0.193,south-southwest,7.6,Yes
2016/02/29,02:10,0.467,0.269,0.483,0.435,0.400,0.219,0.194,south-southwest,7.6,No
2016/02/29,02:20,0.465,0.268,0.484,0.437,0.399,0.219,0.194,south-southwest,8.7,No
2016/02/29,02:30,0.464,0.269,0.484,0.436,0.398,0.219,0.193,south-southwest,8.8,No
2016/02/29,02:40,0.465,0.267,0.484,0.434,0.399,0.218,0.194,south-southwest,7.4,No
2016/02/29,02:50,0.464,0.267,0.486,0.435,0.400,0.219,0.192,south-southwest,7.5,No
2016/02/29,03:00,0.464,0.268,0.483,0.435,0.398,0.218,0.192,south-southwest,6.7,Yes
2016/02/29,03:10,0.465,0.267,0.483,0.434,0.399,0.219,0.192,south-southwest,6.9,No
2016/02/29,03:20,0.461,0.266,0.485,0.433,0.399,0.219,0.193,south-southwest,6.3,Yes
2016/02/29,03:30,0.465,0.267,0.482,0.435,0.399,0.219,0.193,south-southwest,6.3,No
2016/02/29,03:40,0.466,0.267,0.483,0.435,0.399,0.219,0.193,south-southwest,5.6,No
2016/02/29,03:50,0.463,0.268,0.485,0.433,0.400,0.219,0.192,south-southwest,5.3,No
2016/02/29,04:00,0.464,0.266,0.480,0.434,0.399,0.219,0.192,south-southwest,6.7,Yes
2016/02/29,04:10,0.463,0.268,0.485,0.433,0.397,0.219,0.192,south-southwest,7.4,Yes
2016/02/29,04:20,0.464,0.266,0.483,0.432,0.399,0.218,0.191,south-southwest,8.0,No
2016/02/29,04:30,0.465,0.267,0.482,0.434,0.398,0.219,0.193,south-southwest,8.1,Yes
2016/02/29,04:40,0.464,0.267,0.482,0.435,0.397,0.218,0.193,south-southwest,7.5,Yes
2016/02/29,04:50,0.462,0.267,0.483,0.433,0.399,0.220,0.193,south-southwest,8.0,Yes
2016/02/29,05:00,0.466,0.267,0.481,0.433,0.399,0.221,0.193,south,8.4,Yes
2016/02/29,05:10,0.463,0.268,0.483,0.435,0.398,0.220,0.192,south-southwest,9.2,No
2016/02/29,05:20,0.463,0.268,0.484,0.434,0.399,0.219,0.193,south-southwest,11.5,No
2016/02/29,05:30,0.464,0.267,0.481,0.432,0.400,0.220,0.193,south-southwest,12.3,No
2016/02/29,05:40,0.463,0.268,0.484,0.432,0.398,0.219,0.192,south-southwest,13.7,No
2016/02/29,05:50,0.462,0.268,0.483,0.434,0.398,0.219,0.192,south-southwest,12.6,No
2016/02/29,06:00,0.463,0.268,0.481,0.433,0.398,0.219,0.191,south-southwest,12.2,No
2016/02/29,06:10,0.464,0.267,0.483,0.434,0.397,0.218,0.192,south-southwest,11.8,No
2016/02/29,06:20,0.462,0.267,0.480,0.433,0.396,0.218,0.192,south-southwest,10.7,No
2016/02/29,06:30,0.463,0.267,0.480,0.432,0.397,0.218,0.191,south-southwest,10.6,No
2016/02/29,06:40,0.462,0.265,0.483,0.433,0.397,0.219,0.192,south-southwest,8.5,No
2016/02/29,06:50,0.464,0.266,0.482,0.432,0.397,0.218,0.192,south,8.3,No
2016/02/29,07:00,0.465,0.267,0.479,0.431,0.398,0.218,0.191,south,9.4,No
2016/02/29,07:10,0.462,0.266,0.482,0.432,0.397,0.217,0.193,south-southwest,10.1,No
2016/02/29,07:20,0.462,0.265,0.481,0.434,0.398,0.217,0.191,south-southwest,9.4,No
2016/02/29,07:30,0.464,0.267,0.480,0.430,0.398,0.219,0.191,south-southwest,9.6,No
2016/02/29,07:40,0.460,0.266,0.485,0.432,0.397,0.219,0.191,south-southwest,9.5,No
2016/02/29,07:50,0.461,0.266,0.480,0.432,0.396,0.219,0.191,south-southwest,11.5,Yes
2016/02/29,08:00,0.463,0.267,0.481,0.430,0.398,0.218,0.191,south-southwest,9.5,No
2016/02/29,08:10,0.461,0.266,0.482,0.432,0.397,0.219,0.190,south-southwest,10.5,No
2016/02/29,08:20,0.463,0.265,0.479,0.431,0.397,0.219,0.192,south-southwest,10.1,No
2016/02/29,08:30,0.460,0.266,0.483,0.430,0.396,0.219,0.192,south-southwest,10.5,No
2016/02/29,08:40,0.463,0.266,0.480,0.434,0.398,0.218,0.190,south-southwest,11.6,No
2016/02/29,08:50,0.462,0.267,0.481,0.432,0.399,0.218,0.191,south-southwest,10.1,No
2016/02/29,09:00,0.461,0.266,0.482,0.434,0.399,0.218,0.191,south-southwest,10.1,No
2016/02/29,09:10,0.462,0.266,0.480,0.432,0.397,0.218,0.191,south-southwest,9.0,No
2016/02/29,09:20,0.461,0.266,0.482,0.432,0.401,0.218,0.192,south,8.1,No
2016/02/29,09:30,0.465,0.265,0.479,0.433,0.396,0.217,0.191,south,8.1,No
2016/02/29,09:40,0.458,0.266,0.484,0.430,0.399,0.218,0.192,south,5.6,No
2016/02/29,09:50,0.463,0.265,0.479,0.432,0.396,0.218,0.192,south,8.0,No
2016/02/29,10:00,0.459,0.266,0.482,0.429,0.398,0.219,0.192,south,7.8,No
2016/02/29,10:10,0.463,0.265,0.480,0.434,0.399,0.218,0.190,south,8.4,No
2016/02/29,10:20,0.459,0.267,0.482,0.431,0.401,0.219,0.191,south,9.1,No
2016/02/29,10:30,0.464,0.265,0.481,0.434,0.399,0.219,0.192,south,9.2,No
2016/02/29,10:40,0.458,0.267,0.480,0.430,0.400,0.219,0.191,south,9.5,No
2016/02/29,10:50,0.463,0.266,0.482,0.433,0.399,0.218,0.192,south,9.0,No
2016/02/29,11:00,0.459,0.269,0.480,0.429,0.399,0.218,0.192,south,10.5,No
2016/02/29,11:10,0.462,0.265,0.481,0.433,0.399,0.219,0.193,south,8.1,No
2016/02/29,11:20,0.461,0.266,0.481,0.430,0.399,0.219,0.192,south,8.3,No
2016/02/29,11:30,0.461,0.265,0.478,0.435,0.396,0.219,0.192,south,10.6,No
2016/02/29,11:40,0.463,0.267,0.482,0.431,0.401,0.219,0.192,south,10.9,No
2016/02/29,11:50,0.459,0.266,0.479,0.433,0.397,0.219,0.191,south-southwest,10.5,No
2016/02/29,12:00,0.464,0.268,0.484,0.433,0.400,0.219,0.192,south-southwest,9.0,No
2016/02/29,12:10,0.462,0.266,0.479,0.434,0.397,0.219,0.192,south-southwest,10.4,No
2016/02/29,12:20,0.464,0.267,0.485,0.432,0.403,0.218,0.193,south-southwest,9.0,No
2016/02/29,12:30,0.461,0.266,0.479,0.435,0.397,0.219,0.193,southwest,9.8,No
2016/02/29,12:40,0.464,0.269,0.484,0.433,0.402,0.219,0.192,south-southwest,9.9,No
2016/02/29,12:50,0.460,0.265,0.480,0.435,0.396,0.218,0.191,south-southwest,11.6,No
2016/02/29,13:00,0.465,0.268,0.484,0.434,0.402,0.219,0.193,south-southwest,11.8,No
2016/02/29,13:10,0.460,0.266,0.481,0.435,0.398,0.219,0.192,south-southwest,9.8,No
2016/02/29,13:20,0.465,0.268,0.483,0.432,0.402,0.218,0.192,south-southwest,11.3,No
2016/02/29,13:30,0.460,0.265,0.480,0.436,0.398,0.218,0.192,south-southwest,11.0,No
2016/02/29,13:40,0.465,0.268,0.483,0.432,0.402,0.218,0.192,south-southwest,9.8,No
2016/02/29,13:50,0.460,0.266,0.481,0.436,0.397,0.218,0.192,south-southwest,8.1,No
2016/02/29,14:00,0.464,0.268,0.484,0.432,0.402,0.219,0.192,west-southwest,6.5,Yes
2016/02/29,14:10,0.461,0.266,0.481,0.436,0.400,0.219,0.193,west,8.7,Yes
2016/02/29,14:20,0.466,0.267,0.485,0.433,0.401,0.219,0.192,west-northwest,8.4,No
2016/02/29,14:30,0.463,0.267,0.483,0.435,0.400,0.219,0.193,west-northwest,6.1,No
2016/02/29,14:40,0.465,0.268,0.485,0.434,0.399,0.220,0.194,west-northwest,4.2,No
2016/02/29,14:50,0.463,0.268,0.482,0.434,0.402,0.219,0.194,north-northwest,6.2,No
2016/02/29,15:00,0.462,0.267,0.483,0.434,0.398,0.219,0.194,north-northwest,6.2,No
2016/02/29,15:10,0.465,0.268,0.484,0.432,0.403,0.219,0.192,north-northwest,5.9,No
2016/02/29,15:20,0.463,0.267,0.481,0.437,0.399,0.218,0.193,north-northwest,6.2,No
2016/02/29,15:30,0.466,0.268,0.484,0.434,0.399,0.219,0.194,north,4.5,No
2016/02/29,15:40,0.463,0.268,0.482,0.434,0.401,0.219,0.192,north-northwest,5.9,Yes
2016/02/29,15:50,0.465,0.267,0.484,0.435,0.398,0.219,0.194,north-northwest,6.4,Yes
2016/02/29,16:00,0.465,0.269,0.487,0.434,0.401,0.219,0.193,north-northwest,6.7,Yes
2016/02/29,16:10,0.465,0.268,0.482,0.437,0.400,0.220,0.194,north-northwest,4.5,Yes
2016/02/29,16:20,0.467,0.268,0.487,0.436,0.400,0.219,0.194,north-northwest,4.4,Yes
2016/02/29,16:30,0.465,0.271,0.484,0.436,0.401,0.220,0.194,north-northwest,5.9,Yes
2016/02/29,16:40,0.465,0.269,0.486,0.436,0.400,0.219,0.194,north-northwest,4.2,No
2016/02/29,16:50,0.468,0.268,0.487,0.434,0.399,0.221,0.194,northwest,4.5,Yes
2016/02/29,17:00,0.463,0.270,0.483,0.436,0.401,0.220,0.193,northwest,3.9,Yes
2016/02/29,17:10,0.466,0.269,0.485,0.436,0.398,0.220,0.194,northwest,4.7,Yes
2016/02/29,17:20,0.468,0.270,0.486,0.435,0.401,0.221,0.195,north-northwest,7.5,Yes
2016/02/29,17:30,0.465,0.271,0.485,0.437,0.402,0.222,0.195,north-northwest,10.4,Yes
2016/02/29,17:40,0.468,0.271,0.487,0.437,0.401,0.222,0.196,north-northwest,10.1,Yes
2016/02/29,17:50,0.468,0.269,0.486,0.435,0.400,0.221,0.195,north-northwest,8.1,Yes
2016/02/29,18:00,0.466,0.269,0.485,0.436,0.399,0.221,0.196,north-northwest,7.8,Yes
2016/02/29,18:10,0.466,0.271,0.487,0.435,0.401,0.221,0.194,north,6.8,Yes
2016/02/29,18:20,0.467,0.268,0.486,0.434,0.400,0.221,0.194,north,7.5,Yes
2016/02/29,18:30,0.466,0.269,0.485,0.435,0.400,0.221,0.195,north,8.2,Yes
2016/02/29,18:40,0.468,0.271,0.486,0.437,0.401,0.222,0.195,north,7.9,Yes
2016/02/29,18:50,0.469,0.271,0.488,0.437,0.402,0.223,0.197,north-northwest,7.8,Yes
2016/02/29,19:00,0.467,0.273,0.486,0.437,0.402,0.224,0.196,north-northwest,7.0,Yes
2016/02/29,19:10,0.469,0.274,0.489,0.438,0.403,0.224,0.199,north-northwest,8.3,Yes
2016/02/29,19:20,0.472,0.274,0.490,0.439,0.405,0.227,0.200,north-northwest,6.4,Yes
2016/02/29,19:30,0.474,0.279,0.493,0.441,0.404,0.229,0.202,north-northwest,5.5,Yes
2016/02/29,19:40,0.475,0.281,0.492,0.442,0.407,0.231,0.204,north,7.8,Yes
2016/02/29,19:50,0.475,0.283,0.494,0.442,0.406,0.233,0.205,north,7.3,Yes
2016/02/29,20:00,0.476,0.283,0.495,0.442,0.409,0.234,0.206,north,8.5,Yes
2016/02/29,20:10,0.480,0.286,0.496,0.444,0.410,0.236,0.210,north,9.1,Yes
2016/02/29,20:20,0.479,0.286,0.496,0.447,0.411,0.237,0.210,north,7.8,Yes
2016/02/29,20:30,0.479,0.286,0.495,0.445,0.409,0.235,0.209,north-northwest,7.6,Yes
2016/02/29,20:40,0.478,0.286,0.496,0.444,0.410,0.236,0.211,north,7.5,Yes
2016/02/29,20:50,0.482,0.286,0.495,0.443,0.412,0.238,0.210,north,9.6,Yes
2016/02/29,21:00,0.481,0.288,0.496,0.448,0.413,0.239,0.211,north-northwest,9.7,Yes
2016/02/29,21:10,0.485,0.290,0.496,0.447,0.413,0.240,0.214,north,5.9,Yes
2016/02/29,21:20,0.484,0.290,0.499,0.447,0.414,0.242,0.216,north,6.6,Yes
2016/02/29,21:30,0.480,0.287,0.495,0.445,0.412,0.240,0.213,north,7.5,No
2016/02/29,21:40,0.478,0.285,0.491,0.443,0.411,0.237,0.209,north,5.3,No
2016/02/29,21:50,0.475,0.281,0.488,0.440,0.407,0.232,0.207,north-northwest,3.6,No
2016/02/29,22:00,0.471,0.280,0.490,0.437,0.404,0.230,0.203,north-northwest,1.0,No
2016/02/29,22:10,0.469,0.276,0.488,0.435,0.404,0.227,0.201,north,3.7,No
2016/02/29,22:20,0.467,0.273,0.482,0.433,0.403,0.226,0.198,north,5.9,No
2016/02/29,22:30,0.465,0.273,0.481,0.432,0.399,0.224,0.196,north-northwest,5.8,No
2016/02/29,22:40,0.467,0.271,0.482,0.431,0.398,0.222,0.196,north,5.4,No
2016/02/29,22:50,0.464,0.269,0.481,0.430,0.396,0.220,0.194,north-northwest,6.1,No
2016/02/29,23:00,0.461,0.269,0.479,0.430,0.397,0.220,0.193,north-northwest,9.0,No
2016/02/29,23:10,0.462,0.267,0.480,0.428,0.397,0.219,0.192,north-northwest,8.1,No
2016/02/29,23:20,0.463,0.267,0.481,0.429,0.395,0.219,0.191,north-northwest,10.4,No
2016/02/29,23:30,0.460,0.267,0.480,0.428,0.394,0.220,0.192,north-northwest,7.8,No
2016/02/29,23:40,0.461,0.267,0.478,0.429,0.397,0.218,0.190,north-northwest,8.6,No
2016/02/29,23:50,0.458,0.266,0.479,0.428,0.396,0.218,0.189,north-northwest,9.5,No
